This is the latest recevied weather packets stored in our database for station/object DL5TW-13. If no packets are shown the sender has not sent any weather packets the latest 10 day(s).
| Time | Temp. | Humidity | Pressure | Rain* | Wind** | Luminosity | Snow |
|---|---|---|---|---|---|---|---|
| 1778079389 | 20.56° C | 51% | 1000 hPa | 0 mm | - | - | - |
| 1778079089 | 21.11° C | 49% | 1000 hPa | 0 mm | - | - | - |
| 1778078789 | 21.67° C | 48% | 1000.2 hPa | 0 mm | - | - | - |
| 1778078489 | 22.22° C | 47% | 999.9 hPa | 0 mm | - | - | - |
| 1778078188 | 22.22° C | 47% | 999.9 hPa | 0 mm | - | - | - |
| 1778077888 | 22.22° C | 47% | 1000 hPa | 0 mm | - | - | - |
| 1778077588 | 22.22° C | 48% | 999.9 hPa | 0 mm | - | - | - |
| 1778077287 | 21.67° C | 48% | 1000 hPa | 0 mm | - | - | - |
| 1778076987 | 21.67° C | 47% | 1000 hPa | 0 mm | - | - | - |
| 1778076687 | 22.78° C | 46% | 999.9 hPa | 0 mm | - | - | - |
| 1778076387 | 22.78° C | 45% | 1000 hPa | 0 mm | - | - | - |
| 1778076086 | 23.33° C | 44% | 1000.1 hPa | 0 mm | - | - | - |
| 1778075786 | 23.89° C | 44% | 1000.1 hPa | 0 mm | - | - | - |
| 1778075486 | 23.33° C | 44% | 1000.1 hPa | 0 mm | - | - | - |
| 1778075185 | 22.78° C | 44% | 1000 hPa | 0 mm | - | - | - |
| 1778074885 | 23.33° C | 46% | 1000.1 hPa | 0 mm | - | - | - |
| 1778074585 | 23.33° C | 46% | 1000.2 hPa | 0 mm | - | - | - |
| 1778074285 | 23.33° C | 44% | 1000.1 hPa | 0 mm | - | - | - |
| 1778073984 | 23.89° C | 45% | 1000.1 hPa | 0 mm | - | - | - |
| 1778073684 | 23.33° C | 46% | 1000.1 hPa | 0 mm | - | - | - |
| 1778073384 | 23.33° C | 45% | 1000.4 hPa | 0 mm | - | - | - |
| 1778073083 | 23.33° C | 47% | 1000.2 hPa | 0 mm | - | - | - |
| 1778072783 | 22.78° C | 47% | 1000.2 hPa | 0 mm | - | - | - |
| 1778072483 | 22.78° C | 48% | 1000.2 hPa | 0 mm | - | - | - |
| 1778072183 | 21.67° C | 49% | 1000.3 hPa | 0 mm | - | - | - |
* Rain latest hour (hover to see other rain measurements)
** Current wind speed in m/s (hover to see current wind gust speed)